Showing default

BLACKJACK ACES-2, 56955

Orbit data source: Space-Track

BLACKJACK ACES-2, 56955 is a payload satellite owned by DARPA (US) in SSO that was launched on Mon, 12 Jun 2023 UTC via an FALCON 9 launch vehicle from the Air Force Western Test Range (AFWTR). Payload-class satellites include a variety of spacecraft equipped with specific instruments for various scientific and technological missions. These include communications satellites like Starlink; space stations such as the ISS; scientific satellites like the Hubble; Earth observation satellites from companies like Planet Labs, Umbra, and HawkEye 360; GPS; miniature CubeSats for education and research; and military/defense satellites.

Loading next visibility...
Identifier
56955, 2023-084Z
Orbit
SSO
Country
Flag of USUS
Related business
Manufacturer
BLCAN/LMSS
Mission
Operational Defense Communications
Bus & Motor
X-SAT, Unknown motor
Mass
~200 kg wet, ~200 kg dry
Launch date (UTC)
2023-06-12 (3 years ago)
Launch vehicle
FALCON 9
Launch site
Air Force Western Test Range (AFWTR)
Object type
Payload
Rocket body
Debris
Shape & HBR
Box, 3.6 m
Radar Cross Section
0.875 m², Large (>1 m²)

Expand to show TLE details & history
Last TLE update: 14 hours ago

TLE from 14 hours ago
0 BLACKJACK ACES-2
1 56955U 23084Z   26107.21553729  .00004139  00000-0  20534-3 0  9991
2 56955  97.6107 242.0764 0002874 137.0271 223.1188 15.18281787157926
Epoch: 2026-04-17T05:10Z
TLE epoch observation values (Epoch: 2026-04-17T05:10:22.421Z)
Latitude
Longitude
-40.86895°
Altitude
515.561 km
Speed
7.605 km/s
True Right ascension
16h 08m 18s
True Declination
0° 00' 00"
Sunlit
Object was in full shadow at epoch
Visualization orbit readout
Latitude
Unknown
Longitude
Unknown
Altitude
Unknown
Speed
Unknown
Apparent Right ascension
Unknown
Apparent Declination
Unknown
Sunlit
N/A
Visualization observer readout
Local Sidereal Time
02:12:14
Azimuth
Unknown
Elevation
Unknown
Doppler factor
Unknown
Orbital elements
Apogee altitude
509.989 km
Perigee altitude
506.031 km
Semi-major axis
6,886.147 km
Eccentricity
0.00029
Inclination
97.6107°
RAAN
242.0764°
Arg. of periapsis
137.0271°
True anomaly
223.0963°
Mean anomaly
223.1188°
Eccentric anomaly
223.10755°
Mean motion
3.79821 °/min
Orbital period
94.78 mins
BSTAR
0.00020534
Loading maneuver chart data...
Computing Atmospheric mass density...

Documentation

Showing up to 5 results
|